Tiempo atmosférico en la estación meteorológica de Pollença, Illes Balears (45 m.)



Fecha
DESCASC
Temp. máxima en grados centígrados (hora)
DESCASC
Temp. mínima en grados centígrados (hora)
DESCASC
Temp. media en grados centígrados
DESCASC
Racha de viento máxima en m/sg (hora)
DESCASC
Velocidad máxima media en intervalos de 10 minutos(hora)
DESCASC
Precipitaciones diarias en mm
DESCASC
Precipitaciones de 00:00 a 06:00 en mm
DESCASC
Precipitaciones de 06:00 a 12:00 en mm
DESCASC
Precipitaciones de 12:00 a 18:00 en mm
DESCASC
Precipitaciones de 18:00 a 24:00 en mm
DESCASC
05-12-2019 17.9 (14:00) 7.1 (07:50) 12.5 3.33 (13:30) 1.67 (13:50) 0.2 0 0 0.2 0
04-12-2019 16.3 (07:30) 8 (23:50) 12.1 14.17 (06:20) 6.39 (02:40) 33.8 11.8 9 13 0
03-12-2019 16.3 (21:50) 11.3 (00:00) 13.8 10.83 (22:20) 5.28 (22:20) 1.4 0.6 0 0 0.8
02-12-2019 15.2 (15:10) 12.7 (00:00) 13.9 7.78 (15:20) 2.78 (10:40) 20.8 16 4.8 0 0
01-12-2019 19.5 (11:40) 9 (00:00) 14.3 5.83 (15:50) 2.78 (15:50) 0 0 0 0 0
30-11-2019 20.8 (13:30) 8.9 (00:00) 14.8 7.22 (17:40) 3.61 (17:10) 0 0 0 0 0
29-11-2019 22.4 (13:00) 8.9 (00:00) 15.6 4.44 (14:40) 2.22 (14:40) 0 0 0 0 0
28-11-2019 21.8 (14:10) 9 (00:00) 15.4 10.56 (09:40) 4.72 (08:30) 0 0 0 0 0
27-11-2019 20.8 (11:00) 9.5 (00:00) 15.1 11.67 (09:20) 5.56 (08:20) 0 0 0 0 0
26-11-2019 21.7 (13:40) 7.4 (00:00) 14.6 6.67 (17:20) 2.78 (17:10) 0 0 0 0 0
25-11-2019 20.1 (14:10) 10 (00:00) 15.1 11.11 (13:20) 5.56 (13:10) 0 0 0 0 0
24-11-2019 16.3 (14:00) 12.8 (00:00) 14.5 15 (02:40) 7.78 (02:30) 0 0 0 0 0
23-11-2019 17 (11:00) 10.2 (00:00) 13.6 19.72 (00:50) 8.61 (19:50) 12.2 9.2 0 3 0
22-11-2019 18.5 (13:40) 8.2 (00:00) 13.3 19.17 (23:59) 7.78 (17:40) 17.4 0 0 0.2 17.2
21-11-2019 16.6 (13:50) 6.8 (00:00) 11.7 6.67 (15:50) 3.61 (16:00) 1.4 1.4 0 0 0
20-11-2019 15 (14:30) 3.4 (00:00) 9.2 6.67 (12:50) 2.5 (12:50) -- 0 0 -- 0
19-11-2019 15.7 (13:50) 4.8 (00:00) 10.3 8.61 (12:40) 4.17 (12:50) 0.6 0.4 0 0.2 0
18-11-2019 13.9 (10:30) 10.4 (00:00) 12.1 13.33 (17:30) 5.83 (16:00) 9.8 3.8 5.4 0 0.6
17-11-2019 16.7 (12:30) 9.1 (00:00) 12.9 18.06 (05:20) 7.5 (04:30) 0 0 0 0 0
16-11-2019 13.7 (11:50) 4.7 (00:00) 9.2 16.94 (23:30) 7.78 (23:30) 4.8 3 0 1.8 0
15-11-2019 14.6 (14:10) 5 (00:00) 9.8 10.56 (11:40) 4.72 (12:50) 0.8 0.4 0.2 0.2 0
14-11-2019 17.1 (11:10) 6.7 (00:00) 11.9 13.06 (15:40) 6.67 (15:40) 4.2 0 2.8 1.4 0
13-11-2019 15.4 (00:00) 8.1 (00:00) 11.8 11.11 (01:10) 4.72 (01:00) 6.4 0 2.8 3.6 0
12-11-2019 17.2 (13:00) 8.2 (00:00) 12.7 13.06 (21:30) 6.11 (15:40) 0.2 0 0 0.2 0
11-11-2019 14.7 (19:30) 8.3 (23:00) 11.5 15 (04:20) 6.67 (07:20) 4.6 0 3.8 0.6 0.2
10-11-2019 16.6 (03:00) 8.8 (00:00) 12.7 16.11 (11:10) 6.94 (23:30) 46.2 2.8 42.6 0.6 0.2
09-11-2019 17.5 (12:40) 12.5 (00:00) 15 14.17 (00:40) 6.39 (01:40) 0.2 0.2 0 0 0
08-11-2019 15.9 (19:40) 10.8 (00:00) 13.3 16.39 (21:10) 8.33 (21:30) 1.8 1.2 0.2 0.4 0
07-11-2019 21.3 (12:30) 8.3 (00:00) 14.8 9.44 (19:20) 4.17 (13:00) 21 0 0 0.8 20.2
06-11-2019 19.3 (15:00) 10.1 (00:00) 14.7 14.72 (05:00) 6.67 (02:00) 0 0 0 0 0

Gráficas

Temp. máximas Temp. mínimas Temp. medias Precipitaciones Rachas de viento máximas Velocidades máximas media en intervalos de 10 minutos

Datos horarios

Fecha y hora oficial Temperatura (ºC) Velocidad del viento (km/h) Dirección del viento Racha (km/h) Dirección de racha Precipitación (mm) Presión (hPa) Tendencia (hPa) Humedad (%)
2019-12-05 23:00:00 9.7 2 Norte 4 Norte 0 -- -- 99
2019-12-05 22:00:00 10 2 Norte 5 Norte 0 -- -- 99
2019-12-05 21:00:00 10.4 0 Calma 4 Oeste 0 -- -- 99
2019-12-05 20:00:00 10.2 0 Calma 4 Norte 0 -- -- 98
2019-12-05 19:00:00 10.8 0 Calma 4 Sudoeste 0 -- -- 97
2019-12-05 18:00:00 11.6 0 Calma 2 Norte 0 -- -- 93
2019-12-05 17:00:00 14.3 0 Calma 5 Norte 0 -- -- 88
2019-12-05 16:00:00 15.5 3 Nordeste 7 Este 0 -- -- 80
2019-12-05 15:00:00 16.2 3 Este 8 Este 0.2 -- -- 74
2019-12-05 14:00:00 17.9 4 Nordeste 12 Este 0 -- -- 60
2019-12-05 13:00:00 17.7 5 Sudeste 10 Este 0 -- -- 64
2019-12-05 12:00:00 16.8 4 Sudeste 9 Sur 0 -- -- 73
2019-12-05 11:00:00 15.4 0 Calma 8 Este 0 -- -- 93
2019-12-05 10:00:00 13.2 0 Calma 4 Norte 0 -- -- 100
2019-12-05 09:00:00 8.6 0 Calma 5 Norte 0 -- -- 100
2019-12-05 08:00:00 7.3 2 Norte 6 Norte 0 -- -- 100
2019-12-05 07:00:00 8 0 Calma 5 Norte 0 -- -- 100
2019-12-05 06:00:00 7.9 2 Norte 4 Norte 0 -- -- 100
2019-12-05 05:00:00 7.4 0 Calma 4 Este 0 -- -- 100
2019-12-05 04:00:00 8.3 3 Este 8 Sudoeste 0 -- -- 100
2019-12-05 03:00:00 8 2 Oeste 6 Oeste 0 -- -- 100
2019-12-05 02:00:00 8 0 Calma 4 Norte 0 -- -- 100
2019-12-05 01:00:00 8.1 2 Norte 5 Noroeste 0 -- -- 100
2019-12-05 00:00:00 8.2 0 Calma 4 Norte 0 -- -- 100
2019-12-04 23:00:00 8.8 2 Noroeste 5 Noroeste 0 -- -- 100
2019-12-04 22:00:00 9.1 2 Noroeste 6 Oeste 0 -- -- 99
2019-12-04 21:00:00 9.6 3 Norte 11 Oeste 0 -- -- 99
2019-12-04 20:00:00 10.5 5 Sudoeste 10 Oeste 0 -- -- 99
2019-12-04 19:00:00 9.7 2 Norte 4 Oeste 0 -- -- 99
2019-12-04 18:00:00 10.7 3 Oeste 9 Oeste 0 -- -- 98
2019-12-04 17:00:00 11.1 2 Oeste 9 Oeste 0 -- -- 98
2019-12-04 16:00:00 11.2 5 Sudoeste 9 Oeste 0.2 -- -- 98
2019-12-04 15:00:00 10.5 2 Sudoeste 4 Sudoeste 1.2 -- -- 97
2019-12-04 14:00:00 10.4 3 Sudoeste 8 Este 3.8 -- -- 97
2019-12-04 13:00:00 10.9 5 Este 45 Sudeste 7.8 -- -- 95
2019-12-04 12:00:00 14.6 15 Este 39 Este 0.8 -- -- 87
2019-12-04 11:00:00 15 17 Nordeste 48 Este 0.4 -- -- 86
2019-12-04 10:00:00 14.7 6 Este 23 Sudeste 0 -- -- 88
2019-12-04 09:00:00 11.8 5 Norte 35 Sudoeste 5.4 -- -- 96
2019-12-04 08:00:00 13.4 11 Sudoeste 45 Sudeste 1.4 -- -- 79
2019-12-04 07:00:00 15.9 15 Este 51 Sudeste 1 -- -- 91
2019-12-04 06:00:00 16 15 Este 49 Sudeste 1 -- -- 90
2019-12-04 05:00:00 15.5 17 Este 42 Nordeste 2.8 -- -- 93
2019-12-04 04:00:00 15.1 23 Nordeste 46 Nordeste 5.6 -- -- 92
2019-12-04 03:00:00 15.6 19 Este 49 Este 1.8 -- -- 92
2019-12-04 02:00:00 15.8 20 Este 44 Este 0.6 -- -- 90
2019-12-04 01:00:00 16 20 Este 46 Este 0 -- -- 89
2019-12-04 00:00:00 15.7 18 Este 37 Este 0.8 -- -- 90
2019-12-03 23:00:00 15.9 14 Este 39 Este 0 -- -- 90
2019-12-03 22:00:00 16.3 15 Este 35 Este 0 -- -- 84
2019-12-03 21:00:00 16.1 13 Este 36 Nordeste 0 -- -- 81
2019-12-03 20:00:00 15.8 14 Este 34 Este 0 -- -- 84
2019-12-03 19:00:00 15.4 10 Este 26 Este 0 -- -- 81
2019-12-03 18:00:00 14.9 8 Nordeste 19 Nordeste 0 -- -- 78
2019-12-03 17:00:00 14.5 5 Este 16 Este 0 -- -- 80
2019-12-03 16:00:00 14.7 5 Este 24 Este 0 -- -- 76
2019-12-03 15:00:00 15 6 Este 22 Este 0 -- -- 77
2019-12-03 14:00:00 14.9 8 Nordeste 23 Este 0 -- -- 80
2019-12-03 13:00:00 14.7 7 Nordeste 22 Este 0 -- -- 76
2019-12-03 12:00:00 13.2 9 Nordeste 24 Norte 0 -- -- 75
2019-12-03 11:00:00 12.9 9 Norte 29 Norte 0 -- -- 73
2019-12-03 10:00:00 12.3 4 Este 21 Este 0 -- -- 74
2019-12-03 09:00:00 12.2 6 Este 29 Nordeste 0 -- -- 72
2019-12-03 08:00:00 12.2 8 Este 32 Este 0 -- -- 73
2019-12-03 07:00:00 12.2 6 Nordeste 33 Norte 0 -- -- 74
2019-12-03 06:00:00 12.2 8 Nordeste 23 Norte 0 -- -- 72
2019-12-03 05:00:00 11.8 4 Este 16 Nordeste 0 -- -- 79
2019-12-03 04:00:00 11.6 5 Este 21 Este 0.6 -- -- 82
2019-12-03 03:00:00 12.8 5 Este 25 Este 0 -- -- 72
2019-12-03 02:00:00 13 5 Este 20 Este 0 -- -- 72
2019-12-03 01:00:00 13.2 8 Nordeste 24 Este 0 -- -- 72
2019-12-03 00:00:00 13.5 8 Nordeste 24 Este 0 -- -- 72
2019-12-02 23:00:00 13.5 4 Este 17 Este 0 -- -- 70
2019-12-02 22:00:00 13.6 6 Este 21 Nordeste 0 -- -- 71
2019-12-02 21:00:00 13.4 4 Este 22 Este 0 -- -- 74
2019-12-02 20:00:00 13.4 7 Este 21 Este 0 -- -- 74
2019-12-02 19:00:00 13.2 4 Este 22 Este 0 -- -- 74
2019-12-02 18:00:00 13.4 5 Este 18 Nordeste 0 -- -- 73
2019-12-02 17:00:00 13.7 6 Este 17 Este 0 -- -- 72
2019-12-02 16:00:00 14.1 7 Este 28 Este 0 -- -- 72
2019-12-02 15:00:00 15.1 7 Nordeste 24 Este 0 -- -- 68
2019-12-02 14:00:00 14.3 6 Este 23 Este 0 -- -- 73
2019-12-02 13:00:00 14.4 7 Este 20 Nordeste 0 -- -- 74
2019-12-02 12:00:00 14.3 4 Este 21 Este 0 -- -- 77
2019-12-02 11:00:00 14.1 8 Este 24 Nordeste 0 -- -- 77
2019-12-02 10:00:00 13.5 6 Este 15 Este 0 -- -- 86
2019-12-02 09:00:00 13 4 Este 20 Este 0 -- -- 90
2019-12-02 08:00:00 13 9 Este 21 Nordeste 0.2 -- -- 92
2019-12-02 07:00:00 12.9 4 Este 13 Este 4.6 -- -- 97
2019-12-02 06:00:00 13.1 5 Sudeste 15 Este 1.8 -- -- 97
2019-12-02 05:00:00 13.2 3 Nordeste 21 Norte 7 -- -- 97
2019-12-02 04:00:00 13.7 10 Noroeste 22 Norte 7.2 -- -- 95
2019-12-02 03:00:00 15 5 Este 18 Este 0 -- -- 87
2019-12-02 02:00:00 14.2 3 Sudeste 8 Este 0 -- -- 93
2019-12-02 01:00:00 13.8 0 Calma 4 Sudeste 0 -- -- 93
2019-12-02 00:00:00 13.9 0 Calma 5 Este 0 -- -- 93
2019-12-01 23:00:00 13.6 0 Calma 2 Norte 0 -- -- 93
2019-12-01 22:00:00 13.7 0 Calma 3 Nordeste 0 -- -- 93
2019-12-01 21:00:00 13.6 0 Calma 3 Nordeste 0 -- -- 93
2019-12-01 20:00:00 13.5 0 Calma 4 Noroeste 0 -- -- 92
2019-12-01 19:00:00 13.5 3 Norte 6 Norte 0 -- -- 91
2019-12-01 18:00:00 14.3 0 Calma 17 Noroeste 0 -- -- 83
2019-12-01 17:00:00 15.8 3 Oeste 19 Oeste 0 -- -- 78
2019-12-01 16:00:00 16.9 8 Noroeste 21 Oeste 0 -- -- 74
2019-12-01 15:00:00 17.6 6 Noroeste 17 Norte 0 -- -- 72
2019-12-01 14:00:00 18.9 6 Norte 11 Norte 0 -- -- 69
2019-12-01 13:00:00 18.1 5 Nordeste 12 Sudoeste 0 -- -- 75
2019-12-01 12:00:00 19 4 Sudoeste 18 Sudoeste 0 -- -- 73
2019-12-01 11:00:00 18.3 8 Sudoeste 15 Sur 0 -- -- 75
2019-12-01 10:00:00 16 4 Norte 7 Norte 0 -- -- 84
2019-12-01 09:00:00 10.9 2 Norte 4 Noroeste 0 -- -- 99
2019-12-01 08:00:00 9.4 0 Calma 7 Norte 0 -- -- 98
2019-12-01 07:00:00 9.9 2 Oeste 7 Nordeste 0 -- -- 97
2019-12-01 06:00:00 10.2 4 Norte 9 Norte 0 -- -- 98
2019-12-01 05:00:00 10.1 2 Nordeste 8 Oeste 0 -- -- 98
2019-12-01 04:00:00 9.3 0 Calma 7 Nordeste 0 -- -- 98
2019-12-01 03:00:00 9.7 2 Norte 9 Norte 0 -- -- 97
2019-12-01 02:00:00 10 2 Noroeste 10 Norte 0 -- -- 96
2019-12-01 01:00:00 10.7 3 Norte 10 Norte 0 -- -- 96
2019-12-01 00:00:00 11.2 4 Norte 11 Norte 0 -- -- 97
2019-11-30 23:00:00 10.4 2 Norte 5 Oeste 0 -- -- 97
2019-11-30 22:00:00 11.1 2 Noroeste 5 Nordeste 0 -- -- 96
2019-11-30 21:00:00 12.5 3 Norte 23 Sur 0 -- -- 90
2019-11-30 20:00:00 15.3 6 Sur 22 Sudeste 0 -- -- 86
2019-11-30 19:00:00 15.6 5 Sudoeste 16 Sur 0 -- -- 84
2019-11-30 18:00:00 15.8 9 Sur 26 Sur 0 -- -- 84
2019-11-30 17:00:00 16.8 10 Sur 22 Sudoeste 0 -- -- 81
2019-11-30 16:00:00 18.4 10 Sur 20 Sur 0 -- -- 76
2019-11-30 15:00:00 19.4 8 Sudoeste 20 Sudoeste 0 -- -- 70
2019-11-30 14:00:00 20.4 10 Sudoeste 22 Sudoeste 0 -- -- 66
2019-11-30 13:00:00 20.5 5 Sudoeste 15 Sur 0 -- -- 67
2019-11-30 12:00:00 18.9 2 Oeste 11 Norte 0 -- -- 71
2019-11-30 11:00:00 17 5 Norte 10 Norte 0 -- -- 78
2019-11-30 10:00:00 14.6 0 Calma 2 Nordeste 0 -- -- 93
2019-11-30 09:00:00 9.9 0 Calma 2 Norte 0 -- -- 99
2019-11-30 08:00:00 8.9 0 Calma 2 Nordeste 0 -- -- 99
2019-11-30 07:00:00 9.4 0 Calma 2 Norte 0 -- -- 98
2019-11-30 06:00:00 10.7 0 Calma 2 Nordeste 0 -- -- 98
2019-11-30 05:00:00 11.1 0 Calma 3 Oeste 0 -- -- 97
2019-11-30 04:00:00 10.7 0 Calma 4 Sudeste 0 -- -- 97
2019-11-30 03:00:00 10.8 0 Calma 4 Sudeste 0 -- -- 97
2019-11-30 02:00:00 10.7 0 Calma 3 Oeste 0 -- -- 97
2019-11-30 01:00:00 10.5 3 Nordeste 7 Este 0 -- -- 97
2019-11-30 00:00:00 10.1 0 Calma 4 Norte 0 -- -- 96
2019-11-29 23:00:00 10.7 0 Calma 5 Noroeste 0 -- -- 95
2019-11-29 22:00:00 10.3 0 Calma 4 Noroeste 0 -- -- 94
2019-11-29 21:00:00 10.7 0 Calma 3 Norte 0 -- -- 92
2019-11-29 20:00:00 11.6 0 Calma 4 Este 0 -- -- 89
2019-11-29 19:00:00 12.2 2 Norte 4 Oeste 0 -- -- 88
2019-11-29 18:00:00 13.9 2 Oeste 6 Sudoeste 0 -- -- 83
2019-11-29 17:00:00 17.7 3 Oeste 8 Oeste 0 -- -- 67
2019-11-29 16:00:00 19.6 4 Norte 8 Norte 0 -- -- 56
2019-11-29 15:00:00 19.8 5 Norte 16 Norte 0 -- -- 53
2019-11-29 14:00:00 20.4 4 Este 9 Sur 0 -- -- 57
2019-11-29 13:00:00 22.4 4 Sudoeste 15 Sudoeste 0 -- -- 45
2019-11-29 12:00:00 19 5 Sudeste 12 Este 0 -- -- 70
2019-11-29 11:00:00 17.7 4 Sur 10 Sur 0 -- -- 70
2019-11-29 10:00:00 14.7 0 Calma 5 Nordeste 0 -- -- 81
2019-11-29 09:00:00 10.8 0 Calma 6 Sur 0 -- -- 96
2019-11-29 08:00:00 9.4 0 Calma 6 Oeste 0 -- -- 97
2019-11-29 07:00:00 9.6 0 Calma 8 Oeste 0 -- -- 97
2019-11-29 06:00:00 9.6 2 Sudoeste 6 Oeste 0 -- -- 98
2019-11-29 05:00:00 9 0 Calma 6 Oeste 0 -- -- 97
2019-11-29 04:00:00 9.3 0 Calma 10 Sudeste 0 -- -- 96
2019-11-29 03:00:00 9.7 0 Calma 9 Oeste 0 -- -- 94
2019-11-29 02:00:00 10.7 4 Sudoeste 13 Sudoeste 0 -- -- 96
2019-11-29 01:00:00 9.4 2 Noroeste 8 Sudeste 0 -- -- 93
2019-11-29 00:00:00 9.8 6 Sudeste 10 Sudeste 0 -- -- 93
2019-11-28 23:00:00 9.7 2 Oeste 5 Norte 0 -- -- 93
2019-11-28 22:00:00 10.7 2 Norte 5 Noroeste 0 -- -- 91
2019-11-28 21:00:00 10.4 2 Nordeste 4 Oeste 0 -- -- 92
2019-11-28 20:00:00 11.7 0 Calma 7 Oeste 0 -- -- 87
2019-11-28 19:00:00 12.8 0 Calma 8 Este 0 -- -- 82
2019-11-28 18:00:00 13.9 4 Sudeste 17 Sudoeste 0 -- -- 77
2019-11-28 17:00:00 17.2 7 Sudoeste 14 Sudoeste 0 -- -- 62
2019-11-28 16:00:00 18.7 8 Sur 16 Sur 0 -- -- 63
2019-11-28 15:00:00 20.1 11 Oeste 22 Sudoeste 0 -- -- 38
2019-11-28 14:00:00 21.4 10 Sudoeste 30 Noroeste 0 -- -- 36
2019-11-28 13:00:00 20.9 13 Sudoeste 23 Oeste 0 -- -- 39
2019-11-28 12:00:00 20.4 6 Sudoeste 26 Sudoeste 0 -- -- 44
2019-11-28 11:00:00 20.1 6 Noroeste 20 Oeste 0 -- -- 43
2019-11-28 10:00:00 18.8 10 Oeste 38 Oeste 0 -- -- 54
2019-11-28 09:00:00 17.1 15 Oeste 33 Noroeste 0 -- -- 55
2019-11-28 08:00:00 15.9 11 Oeste 24 Oeste 0 -- -- 56
2019-11-28 07:00:00 12.2 3 Noroeste 19 Oeste 0 -- -- 70
2019-11-28 06:00:00 9.7 3 Noroeste 9 Oeste 0 -- -- 82
2019-11-28 05:00:00 11.2 0 Calma 16 Oeste 0 -- -- 73
2019-11-28 04:00:00 15.3 6 Oeste 22 Noroeste 0 -- -- 56
2019-11-28 03:00:00 10.1 3 Noroeste 8 Noroeste 0 -- -- 95
2019-11-28 02:00:00 9.5 0 Calma 4 Sudeste 0 -- -- 96
2019-11-28 01:00:00 9.2 0 Calma 4 Norte 0 -- -- 96
2019-11-28 00:00:00 9.5 0 Calma 7 Sudeste 0 -- -- 95
2019-11-27 23:00:00 10.2 2 Oeste 9 Sudeste 0 -- -- 93
2019-11-27 22:00:00 10.3 2 Oeste 5 Oeste 0 -- -- 93
2019-11-27 21:00:00 10.7 3 Norte 5 Noroeste 0 -- -- 93
2019-11-27 20:00:00 11.5 2 Norte 4 Sudoeste 0 -- -- 93
2019-11-27 19:00:00 12.9 0 Calma 5 Oeste 0 -- -- 88
2019-11-27 18:00:00 14.9 3 Oeste 12 Noroeste 0 -- -- 80
2019-11-27 17:00:00 17.4 5 Noroeste 14 Noroeste 0 -- -- 67
2019-11-27 16:00:00 18.7 6 Noroeste 28 Oeste 0 -- -- 61
2019-11-27 15:00:00 18.6 11 Oeste 31 Noroeste 0 -- -- 64
2019-11-27 14:00:00 18.8 16 Oeste 33 Noroeste 0 -- -- 64
2019-11-27 06:00:00 -- -- -- -- -- -- -- -- --
2019-11-27 05:00:00 16.8 7 Sudoeste 21 Sur 0 -- -- 74
2019-11-27 04:00:00 13.2 2 Noroeste 8 Nordeste 0 -- -- 88
2019-11-27 03:00:00 15.1 4 Nordeste 18 Oeste 0 -- -- 81
2019-11-27 02:00:00 11.5 4 Sur 21 Oeste 0 -- -- 96
2019-11-27 01:00:00 10 0 Calma 6 Oeste 0 -- -- 97
2019-11-27 00:00:00 10.1 2 Norte 7 Norte 0 -- -- 97
2019-11-26 23:00:00 9.5 2 Oeste 5 Norte 0 -- -- 96
2019-11-26 22:00:00 9.8 2 Norte 4 Nordeste 0 -- -- 96
2019-11-26 21:00:00 10.7 0 Calma 4 Noroeste 0 -- -- 95
2019-11-26 20:00:00 11.9 0 Calma 5 Oeste 0 -- -- 91
2019-11-26 19:00:00 14.1 2 Norte 15 Sur 0 -- -- 81
2019-11-26 18:00:00 15.9 7 Sudoeste 24 Sur 0 -- -- 70
2019-11-26 17:00:00 17.2 9 Sur 21 Sur 0 -- -- 68
2019-11-26 16:00:00 18.5 6 Sur 16 Sudoeste 0 -- -- 70
2019-11-26 15:00:00 19.6 7 Sudoeste 18 Sudoeste 0 -- -- 68
2019-11-26 14:00:00 21.6 6 Sudoeste 17 Sudoeste 0 -- -- 61
2019-11-26 13:00:00 21 7 Sudoeste 17 Oeste 0 -- -- 62
2019-11-26 12:00:00 20.5 8 Sudoeste 14 Sur 0 -- -- 62
2019-11-26 11:00:00 17.5 2 Sudoeste 8 Oeste 0 -- -- 73
2019-11-26 10:00:00 15.1 2 Sudeste 12 Sudeste 0 -- -- 77
2019-11-26 09:00:00 10 0 Calma 4 Nordeste 0 -- -- 98
2019-11-26 08:00:00 7.6 0 Calma 3 Oeste 0 -- -- 98
2019-11-26 07:00:00 7.6 0 Calma 2 Nordeste 0 -- -- 98
2019-11-26 06:00:00 7.8 0 Calma 2 Norte 0 -- -- 97
2019-11-26 05:00:00 8.1 0 Calma 4 Oeste 0 -- -- 96
2019-11-26 04:00:00 8.1 0 Calma 2 Nordeste 0 -- -- 96
2019-11-26 03:00:00 8.5 0 Calma 2 Noroeste 0 -- -- 95
2019-11-26 02:00:00 9 0 Calma 4 Oeste 0 -- -- 94
2019-11-26 01:00:00 9.4 0 Calma 2 Nordeste 0 -- -- 91
2019-11-26 00:00:00 10 2 Noroeste 7 Sudeste 0 -- -- 89
2019-11-25 23:00:00 10.7 2 Norte 5 Noroeste 0 -- -- 88
2019-11-25 22:00:00 11.1 0 Calma 5 Sudoeste 0 -- -- 83
2019-11-25 21:00:00 12.2 2 Oeste 9 Sudoeste 0 -- -- 78
2019-11-25 20:00:00 14.7 5 Oeste 15 Noroeste 0 -- -- 65
2019-11-25 19:00:00 15.7 8 Oeste 27 Oeste 0 -- -- 60
2019-11-25 18:00:00 16.5 16 Oeste 30 Oeste 0 -- -- 56
2019-11-25 17:00:00 17.2 14 Oeste 28 Oeste 0 -- -- 54
2019-11-25 16:00:00 18.8 6 Oeste 22 Oeste 0 -- -- 50
2019-11-25 15:00:00 18.8 4 Noroeste 24 Oeste 0 -- -- 48
2019-11-25 14:00:00 19.5 13 Oeste 40 Oeste 0 -- -- 44
2019-11-25 13:00:00 19.7 16 Oeste 34 Sudoeste 0 -- -- 43
2019-11-25 12:00:00 18.4 16 Oeste 31 Oeste 0 -- -- 47
2019-11-25 11:00:00 16 5 Este 11 Este 0 -- -- 63
2019-11-25 10:00:00 17.1 3 Oeste 21 Noroeste 0 -- -- 59
2019-11-25 09:00:00 14.4 5 Sudoeste 25 Oeste 0 -- -- 65
2019-11-25 08:00:00 10.9 0 Calma 10 Oeste 0 -- -- 74
2019-11-25 07:00:00 13.6 5 Sudoeste 25 Oeste 0 -- -- 64
2019-11-25 06:00:00 14 11 Oeste 24 Oeste 0 -- -- 57
2019-11-25 05:00:00 10.7 3 Sudoeste 10 Sudoeste 0 -- -- 79
2019-11-25 04:00:00 12.6 3 Sudoeste 23 Sudoeste 0 -- -- 71
2019-11-25 03:00:00 14.4 13 Oeste 31 Oeste 0 -- -- 60
2019-11-25 02:00:00 14.4 13 Oeste 32 Oeste 0 -- -- 56
2019-11-25 01:00:00 14.2 15 Oeste 31 Oeste 0 -- -- 64
2019-11-25 00:00:00 14.1 15 Oeste 37 Oeste 0 -- -- 65
2019-11-24 23:00:00 14.2 13 Oeste 30 Oeste 0 -- -- 61
2019-11-24 22:00:00 13.8 10 Oeste 30 Oeste 0 -- -- 66
2019-11-24 21:00:00 14.1 13 Oeste 30 Oeste 0 -- -- 65
2019-11-24 20:00:00 13.5 8 Oeste 19 Sudoeste 0 -- -- 68
2019-11-24 19:00:00 13.3 7 Sudoeste 29 Oeste 0 -- -- 67
2019-11-24 18:00:00 13 4 Sudoeste 26 Noroeste 0 -- -- 70
2019-11-24 17:00:00 14.2 10 Oeste 25 Oeste 0 -- -- 64
2019-11-24 16:00:00 14.9 9 Oeste 27 Oeste 0 -- -- 62
2019-11-24 15:00:00 14.9 12 Noroeste 37 Oeste 0 -- -- 61
2019-11-24 14:00:00 16.3 12 Oeste 42 Oeste 0 -- -- 57
2019-11-24 13:00:00 15.8 17 Oeste 51 Oeste 0 -- -- 58
2019-11-24 12:00:00 15.4 20 Oeste 41 Oeste 0 -- -- 60
2019-11-24 11:00:00 14.9 17 Oeste 41 Oeste 0 -- -- 61
2019-11-24 10:00:00 14.3 15 Oeste 35 Oeste 0 -- -- 63
2019-11-24 09:00:00 14 16 Oeste 38 Oeste 0 -- -- 62
2019-11-24 08:00:00 13.8 13 Oeste 36 Oeste 0 -- -- 62
2019-11-24 07:00:00 13.8 17 Oeste 36 Oeste 0 -- -- 64
2019-11-24 06:00:00 13.7 15 Oeste 37 Oeste 0 -- -- 63
2019-11-24 05:00:00 13.6 15 Oeste 44 Noroeste 0 -- -- 64
2019-11-24 04:00:00 13.4 16 Noroeste 48 Oeste 0 -- -- 65
2019-11-24 03:00:00 13.7 22 Oeste 54 Oeste 0 -- -- 63
2019-11-24 02:00:00 13.9 24 Oeste 46 Oeste 0 -- -- 63
2019-11-24 01:00:00 14.1 19 Oeste 46 Oeste 0 -- -- 61
2019-11-24 00:00:00 14.1 22 Oeste 66 Oeste 0 -- -- 62
2019-11-23 23:00:00 14.2 21 Oeste 42 Oeste 0 -- -- 60
2019-11-23 22:00:00 14.4 18 Oeste 50 Oeste 0 -- -- 60
2019-11-23 21:00:00 14.4 19 Oeste 57 Oeste 0 -- -- 59
2019-11-23 20:00:00 14.8 28 Oeste 59 Oeste 0 -- -- 57
2019-11-23 19:00:00 14.6 30 Oeste 60 Sudoeste 0 -- -- 55
2019-11-23 18:00:00 14.6 22 Oeste 60 Noroeste 0 -- -- 57
2019-11-23 17:00:00 14.2 29 Oeste 63 Oeste 0 -- -- 59
2019-11-23 16:00:00 13.9 19 Oeste 44 Oeste 0 -- -- 66
2019-11-23 15:00:00 14.2 16 Noroeste 46 Oeste 0 -- -- 71
2019-11-23 14:00:00 13.7 15 Oeste 32 Oeste 1 -- -- 75
2019-11-23 13:00:00 12 12 Noroeste 41 Oeste 2 -- -- 88
2019-11-23 12:00:00 16.2 19 Oeste 37 Oeste 0 -- -- 64
2019-11-23 11:00:00 17 13 Oeste 29 Oeste 0 -- -- 61
2019-11-23 10:00:00 15.9 14 Oeste 27 Oeste 0 -- -- 66
2019-11-23 09:00:00 11.1 3 Oeste 11 Este 0 -- -- 96
2019-11-23 08:00:00 10.5 3 Nordeste 12 Oeste 0 -- -- 93
2019-11-23 07:00:00 10.2 3 Nordeste 9 Oeste 0 -- -- 98
2019-11-23 06:00:00 10.8 0 Calma 6 Oeste 0 -- -- 98
2019-11-23 05:00:00 11.9 0 Calma 10 Norte 0 -- -- 98
2019-11-23 04:00:00 13.5 2 Norte 14 Sur 0.2 -- -- 96
2019-11-23 03:00:00 14.9 5 Sudoeste 31 Sudoeste 0 -- -- 94
2019-11-23 02:00:00 15.1 11 Sur 51 Sur 6 -- -- 95
2019-11-23 01:00:00 15 29 Sudoeste 71 Sudoeste 3 -- -- 94
2019-11-23 00:00:00 15.1 28 Sudoeste 69 Sudoeste 7.6 -- -- 95
2019-11-22 23:00:00 14.3 11 Sudoeste 49 Sudoeste 4.6 -- -- 95
2019-11-22 22:00:00 14.7 12 Sudoeste 33 Sudoeste 4 -- -- 94
2019-11-22 21:00:00 15.3 8 Sudoeste 48 Sudoeste 1 -- -- 90
2019-11-22 20:00:00 16.1 16 Sudoeste 50 Oeste 0 -- -- 83
2019-11-22 19:00:00 16.4 20 Sudoeste 54 Sudoeste 0 -- -- 82
2019-11-22 18:00:00 16.5 24 Sudoeste 51 Sudoeste 0 -- -- 82
2019-11-22 17:00:00 16.7 18 Sudoeste 49 Sur 0 -- -- 82
2019-11-22 16:00:00 16.8 20 Sudoeste 48 Sudoeste 0 -- -- 79
2019-11-22 15:00:00 17.9 16 Sur 40 Sudoeste 0 -- -- 75
2019-11-22 14:00:00 18.1 17 Sudoeste 32 Sur 0 -- -- 73
2019-11-22 13:00:00 18.3 13 Sudoeste 27 Sudoeste 0.2 -- -- 74
2019-11-22 12:00:00 17 8 Sur 19 Este 0 -- -- 79
2019-11-22 11:00:00 15 5 Este 17 Sudeste 0 -- -- 85
2019-11-22 10:00:00 13.5 4 Este 15 Sur 0 -- -- 92
2019-11-22 09:00:00 12.1 6 Sur 13 Sur 0 -- -- 98
2019-11-22 08:00:00 10 0 Calma 8 Sur 0 -- -- 96
2019-11-22 07:00:00 9.8 0 Calma 5 Sur 0 -- -- 97
2019-11-22 06:00:00 9.6 2 Sudoeste 6 Sur 0 -- -- 96
2019-11-22 05:00:00 9.2 0 Calma 2 Nordeste 0 -- -- 97
2019-11-22 04:00:00 8.7 0 Calma 2 Norte 0 -- -- 97
2019-11-22 03:00:00 8.6 0 Calma 0 Calma 0 -- -- 96
2019-11-22 02:00:00 8.3 0 Calma 2 Norte 0 -- -- 96
2019-11-22 01:00:00 8.3 0 Calma 2 Norte 0 -- -- 96
2019-11-22 00:00:00 8.6 0 Calma 3 Oeste 0 -- -- 95
2019-11-21 23:00:00 8.8 0 Calma 2 Norte 0 -- -- 94
2019-11-21 22:00:00 8.8 2 Noroeste 4 Noroeste 0 -- -- 94
2019-11-21 21:00:00 8.8 2 Norte 4 Norte 0 -- -- 92
2019-11-21 20:00:00 9.8 0 Calma -- -- 0 -- -- 91
2019-11-21 19:00:00 10.4 0 Calma 2 Norte 0 -- -- 86
2019-11-21 18:00:00 12.2 2 Sur 10 Oeste 0 -- -- 74
2019-11-21 17:00:00 14.1 6 Oeste 22 Oeste 0 -- -- 65
2019-11-21 16:00:00 15.3 13 Oeste 24 Oeste 0 -- -- 57
2019-11-21 15:00:00 15.8 9 Oeste 19 Oeste 0 -- -- 61
2019-11-21 14:00:00 16.3 11 Oeste 21 Noroeste 0 -- -- 61
2019-11-21 13:00:00 16 0 Calma 9 Norte 0 -- -- 73
2019-11-21 12:00:00 15.3 4 Norte 8 Norte 0 -- -- 79
2019-11-21 11:00:00 14.5 3 Norte 8 Este 0 -- -- 84
2019-11-21 10:00:00 12.5 0 Calma 7 Oeste 0 -- -- 95
2019-11-21 09:00:00 10.1 0 Calma 4 Este 0 -- -- 99
2019-11-21 08:00:00 8.5 0 Calma 3 Nordeste 0 -- -- 98
2019-11-21 07:00:00 9.1 0 Calma 4 Oeste 0 -- -- 98
2019-11-21 06:00:00 9.6 0 Calma 5 Noroeste 1 -- -- 98
2019-11-21 05:00:00 9.2 0 Calma 8 Sudeste 0.4 -- -- 97
2019-11-21 04:00:00 8.4 0 Calma 3 Norte 0 -- -- 98
2019-11-21 03:00:00 8.1 0 Calma 3 Nordeste 0 -- -- 98
2019-11-21 02:00:00 7.8 0 Calma 4 Sudeste 0 -- -- 98
2019-11-21 01:00:00 7.4 2 Este 5 Oeste 0 -- -- 98
2019-11-21 00:00:00 7 0 Calma 2 Sudoeste 0 -- -- 97
2019-11-20 23:00:00 6.8 0 Calma 3 Noroeste 0 -- -- 97
2019-11-20 22:00:00 7.5 0 Calma 7 Sur 0 -- -- 95
2019-11-20 21:00:00 8.6 0 Calma 5 Norte 0 -- -- 93
2019-11-20 20:00:00 9.1 0 Calma 10 Sur 0 -- -- 90
2019-11-20 19:00:00 11.7 4 Noroeste 11 Sur 0 -- -- 77
2019-11-20 18:00:00 12 3 Sur 10 Sur 0 -- -- 78
2019-11-20 17:00:00 13.2 6 Sur 15 Sudoeste 0 -- -- 71
2019-11-20 16:00:00 14.1 3 Sur 16 Sudoeste 0 -- -- 65
2019-11-20 15:00:00 14.2 6 Sur 20 Sudeste 0 -- -- 63
2019-11-20 14:00:00 14.7 3 Norte 17 Oeste 0 -- -- 54
2019-11-20 13:00:00 14 6 Este -- -- -- -- -- 61
2019-11-20 12:00:00 -- 8 Sudeste 14 Sur 0 -- -- --
2019-11-20 11:00:00 11.4 0 Calma 4 Norte 0 -- -- 77
2019-11-20 10:00:00 9.6 0 Calma 2 Este 0 -- -- 83
2019-11-20 09:00:00 6.3 0 Calma 4 Norte 0 -- -- 96
2019-11-20 08:00:00 4.7 0 Calma 7 Nordeste 0 -- -- 97
2019-11-20 07:00:00 4.1 0 Calma 3 Norte 0 -- -- 97
2019-11-20 06:00:00 4.2 0 Calma 3 Norte 0 -- -- 97
2019-11-20 05:00:00 4 0 Calma 3 Norte 0 -- -- 95
2019-11-20 04:00:00 4.4 2 Norte 4 Norte 0 -- -- 96
2019-11-20 03:00:00 4.3 0 Calma 3 Norte 0 -- -- 94
2019-11-20 02:00:00 4.6 0 Calma 3 Oeste 0 -- -- 94
2019-11-20 01:00:00 4.5 0 Calma 4 Norte 0 -- -- 92
2019-11-20 00:00:00 4.8 0 Calma 3 Norte 0 -- -- 91
2019-11-19 23:00:00 5.3 0 Calma 4 Noroeste 0 -- -- 88
2019-11-19 22:00:00 5.5 0 Calma 5 Norte 0 -- -- 90
2019-11-19 21:00:00 6 0 Calma 3 Noroeste 0 -- -- 91
2019-11-19 20:00:00 6.8 0 Calma 4 Norte 0 -- -- 90
2019-11-19 19:00:00 7.9 0 Calma 6 Oeste 0 -- -- 85
2019-11-19 18:00:00 9.6 0 Calma 6 Oeste 0 -- -- 75
2019-11-19 17:00:00 12.6 4 Noroeste 18 Noroeste 0 -- -- 63
2019-11-19 16:00:00 14.1 8 Noroeste 21 Noroeste 0 -- -- 53
2019-11-19 15:00:00 14.4 10 Oeste 25 Oeste 0 -- -- 52
2019-11-19 14:00:00 15.6 9 Noroeste 25 Oeste 0 -- -- 51
2019-11-19 13:00:00 14.4 12 Oeste 31 Noroeste 0.2 -- -- 55
2019-11-19 12:00:00 15.4 9 Noroeste 25 Oeste 0 -- -- 54
2019-11-19 11:00:00 15.3 8 Sudoeste 20 Oeste 0 -- -- 54
2019-11-19 10:00:00 13.9 4 Sur 9 Sur 0 -- -- 64
2019-11-19 09:00:00 7.9 0 Calma 3 Nordeste 0 -- -- 97
2019-11-19 08:00:00 6.1 0 Calma 3 Norte 0 -- -- 97
2019-11-19 07:00:00 5.8 0 Calma 4 Norte 0 -- -- 96
2019-11-19 06:00:00 6.6 4 Oeste 6 Noroeste 0 -- -- 95
2019-11-19 05:00:00 7.6 2 Norte 11 Oeste 0 -- -- 90
2019-11-19 04:00:00 9 4 Oeste 8 Oeste 0 -- -- 91
2019-11-19 03:00:00 9.3 0 Calma 10 Sudoeste 0 -- -- 91
2019-11-19 02:00:00 9.8 5 Sudoeste 12 Sudoeste 0 -- -- 87
2019-11-19 01:00:00 9.6 3 Sudoeste 14 Oeste 0.4 -- -- 88
2019-11-19 00:00:00 10.8 9 Norte 33 Norte 0.6 -- -- 75
2019-11-18 23:00:00 12.1 11 Norte 31 Nordeste 0 -- -- 67
2019-11-18 22:00:00 12.3 8 Norte 31 Norte 0 -- -- 62
2019-11-18 21:00:00 12.5 8 Norte 24 Norte 0 -- -- 59
2019-11-18 20:00:00 12 5 Nordeste 26 Norte 0 -- -- 63
2019-11-18 19:00:00 12.1 8 Nordeste 32 Norte 0 -- -- 59
2019-11-18 18:00:00 12.3 15 Norte 48 Norte 0 -- -- 65
2019-11-18 17:00:00 12.4 14 Norte 39 Norte 0 -- -- 66
2019-11-18 16:00:00 12.6 21 Norte 40 Norte 0 -- -- 67
2019-11-18 15:00:00 13.3 17 Norte 42 Norte 0 -- -- 68
2019-11-18 14:00:00 13.2 17 Norte 33 Nordeste 0 -- -- 71
2019-11-18 13:00:00 13.3 11 Norte 35 Norte 0 -- -- 76
2019-11-18 12:00:00 13.4 4 Este 19 Noroeste 0 -- -- 79
2019-11-18 11:00:00 13.1 6 Norte 22 Norte 0.2 -- -- 79
2019-11-18 10:00:00 13.3 10 Norte 23 Norte 0 -- -- 75
2019-11-18 09:00:00 12 5 Noroeste 24 Norte 1.4 -- -- 88
2019-11-18 08:00:00 11.7 4 Norte 22 Norte 1.2 -- -- 90
2019-11-18 07:00:00 10.9 4 Noroeste 12 Oeste 2.6 -- -- 98
2019-11-18 06:00:00 10.7 2 Norte 7 Norte 1.8 -- -- 98
2019-11-18 05:00:00 10.5 0 Calma 5 Oeste 0 -- -- 97
2019-11-18 04:00:00 10.5 0 Calma 3 Sudoeste 1.6 -- -- 96
2019-11-18 03:00:00 10.5 0 Calma 5 Sur 0.4 -- -- 94
2019-11-18 02:00:00 10.5 2 Sudeste 6 Sudoeste 0 -- -- 92
2019-11-18 01:00:00 11.2 0 Calma 6 Sur 0 -- -- 88
2019-11-18 00:00:00 12 2 Nordeste 4 Nordeste 0 -- -- 80
2019-11-17 23:00:00 10.6 3 Noroeste 5 Norte 0 -- -- 81
2019-11-17 22:00:00 10 0 Calma 4 Oeste 0 -- -- 82
2019-11-17 21:00:00 9.4 0 Calma 5 Noroeste 0 -- -- 85
2019-11-17 20:00:00 9.6 0 Calma 5 Sudeste 0 -- -- 82
2019-11-17 19:00:00 9.4 3 Sudeste 7 Sudeste 0 -- -- 82
2019-11-17 18:00:00 10.1 0 Calma 10 Oeste 0 -- -- 73
2019-11-17 17:00:00 13.8 6 Oeste 26 Sudoeste 0 -- -- 55
2019-11-17 16:00:00 14.8 10 Oeste 31 Oeste 0 -- -- 54
2019-11-17 15:00:00 15.5 14 Sudoeste 40 Sudoeste 0 -- -- 51
2019-11-17 14:00:00 16.2 14 Oeste 36 Oeste 0 -- -- 49
2019-11-17 13:00:00 15.5 9 Oeste 34 Sudoeste 0 -- -- 46
2019-11-17 12:00:00 15.8 11 Oeste 36 Oeste 0 -- -- 46
2019-11-17 11:00:00 15.3 16 Oeste 37 Sudoeste 0 -- -- 46
2019-11-17 10:00:00 15.5 17 Oeste 33 Oeste 0 -- -- 45
2019-11-17 09:00:00 13.8 6 Oeste 25 Oeste 0 -- -- 51
2019-11-17 08:00:00 13 9 Oeste 28 Noroeste 0 -- -- 55
2019-11-17 07:00:00 12.8 12 Oeste 40 Noroeste 0 -- -- 51
2019-11-17 06:00:00 13 17 Noroeste 65 Oeste 0 -- -- 55
2019-11-17 05:00:00 12.9 19 Noroeste 57 Noroeste 0 -- -- 55
2019-11-17 04:00:00 12.6 17 Noroeste 51 Noroeste 0 -- -- 57
2019-11-17 03:00:00 12.7 16 Oeste 46 Noroeste 0 -- -- 57
2019-11-17 02:00:00 13.1 22 Oeste 46 Oeste 0 -- -- 52
2019-11-17 01:00:00 13.1 21 Noroeste 61 Oeste 0 -- -- 53
2019-11-17 00:00:00 13 18 Oeste 61 Noroeste 0 -- -- 54
2019-11-16 23:00:00 12.6 22 Noroeste 53 Noroeste 0 -- -- 59
2019-11-16 22:00:00 12.2 11 Noroeste 41 Oeste 0 -- -- 59
2019-11-16 21:00:00 12.4 19 Noroeste 42 Oeste 0 -- -- 64
2019-11-16 20:00:00 11.9 7 Oeste 26 Norte 0 -- -- 73
2019-11-16 19:00:00 12 7 Noroeste 30 Noroeste 0 -- -- 71
2019-11-16 18:00:00 10.9 3 Noroeste 18 Oeste 0.2 -- -- 84
2019-11-16 17:00:00 11.1 9 Noroeste 21 Noroeste 0 -- -- 81
2019-11-16 16:00:00 10.7 2 Oeste 10 Sudoeste 0 -- -- 90
2019-11-16 15:00:00 10.4 5 Oeste 14 Este 0.6 -- -- 91
2019-11-16 14:00:00 11.2 3 Este 13 Norte 0.2 -- -- 85
2019-11-16 13:00:00 11.4 5 Oeste 13 Este 0.8 -- -- 87
2019-11-16 12:00:00 13.2 7 Sudoeste 17 Este 0 -- -- 67
2019-11-16 11:00:00 12.3 3 Oeste 5 Oeste 0 -- -- 81
2019-11-16 10:00:00 10.3 0 Calma 4 Sudoeste 0 -- -- 90
2019-11-16 09:00:00 8.4 0 Calma 4 Norte 0 -- -- 95
2019-11-16 08:00:00 6.3 2 Norte 5 Oeste 0 -- -- 95
2019-11-16 07:00:00 7 2 Noroeste 10 Oeste 0 -- -- 91
2019-11-16 06:00:00 6.5 2 Nordeste 8 Oeste 0 -- -- 94
2019-11-16 05:00:00 7.2 3 Noroeste 13 Oeste 0 -- -- 91
2019-11-16 04:00:00 7.8 5 Oeste 37 Sudoeste 0.6 -- -- 90
2019-11-16 03:00:00 8.4 21 Oeste 40 Oeste 0.4 -- -- 87
2019-11-16 02:00:00 9.3 18 Oeste 33 Oeste 2 -- -- 87
2019-11-16 01:00:00 5 0 Calma 3 Oeste 0 -- -- 97
2019-11-16 00:00:00 5 0 Calma 4 Oeste 0 -- -- 96
2019-11-15 23:00:00 5.1 0 Calma 3 Norte 0 -- -- 95
2019-11-15 22:00:00 5.7 0 Calma 3 Nordeste 0 -- -- 94
2019-11-15 21:00:00 6.6 0 Calma 4 Noroeste 0 -- -- 89
2019-11-15 20:00:00 7.3 0 Calma 12 Sudoeste 0 -- -- 84
2019-11-15 19:00:00 9.8 5 Sudoeste 14 Oeste 0 -- -- 74
2019-11-15 18:00:00 10.5 6 Oeste 17 Oeste 0 -- -- 72
2019-11-15 17:00:00 11.7 7 Oeste 21 Oeste 0 -- -- 65
2019-11-15 16:00:00 13.4 12 Oeste 23 Noroeste 0 -- -- 56
2019-11-15 15:00:00 13.5 11 Oeste 22 Oeste 0 -- -- 57
2019-11-15 14:00:00 14.4 9 Oeste 21 Oeste 0 -- -- 60
2019-11-15 13:00:00 10.7 13 Sudoeste 34 Oeste 0.2 -- -- 76
2019-11-15 12:00:00 14.1 12 Oeste 38 Oeste 0 -- -- 58
2019-11-15 11:00:00 12.8 13 Oeste 32 Oeste 0 -- -- 63
2019-11-15 10:00:00 11.5 12 Noroeste 31 Noroeste 0 -- -- 74
2019-11-15 09:00:00 11 10 Noroeste 32 Oeste 0 -- -- 78
2019-11-15 08:00:00 7.9 2 Sudeste 10 Oeste 0.2 -- -- 98
2019-11-15 07:00:00 6.2 0 Calma 8 Oeste 0 -- -- 97
2019-11-15 06:00:00 6.9 2 Sudeste 8 Sudeste 0 -- -- 96
2019-11-15 05:00:00 8 4 Noroeste 10 Oeste 0.4 -- -- 96
2019-11-15 04:00:00 7.4 2 Norte 5 Noroeste 0 -- -- 94
2019-11-15 03:00:00 7.6 2 Sudoeste 7 Oeste 0 -- -- 96
2019-11-15 02:00:00 6.9 0 Calma 13 Sur 0 -- -- 92
2019-11-15 01:00:00 7.8 6 Sur 13 Sur 0 -- -- 93
2019-11-15 00:00:00 6.8 0 Calma 6 Oeste 0 -- -- 94
2019-11-14 23:00:00 7.8 4 Oeste 7 Oeste 0 -- -- 95
2019-11-14 22:00:00 8.4 0 Calma 8 Sudoeste 0 -- -- 91
2019-11-14 21:00:00 10.5 4 Sudoeste 15 Oeste 0 -- -- 80
2019-11-14 20:00:00 11.2 5 Oeste 17 Oeste 0 -- -- 78
2019-11-14 19:00:00 10.8 8 Oeste 23 Sudoeste 0 -- -- 88
2019-11-14 18:00:00 10.5 4 Sudoeste 38 Noroeste 1.2 -- -- 92
2019-11-14 17:00:00 12.8 18 Noroeste 38 Noroeste 0 -- -- 71
2019-11-14 16:00:00 14.2 18 Oeste 47 Oeste 0 -- -- 68
2019-11-14 15:00:00 14.4 14 Oeste 35 Oeste 0 -- -- 79
2019-11-14 14:00:00 16.8 12 Oeste 28 Oeste 0 -- -- 69
2019-11-14 13:00:00 16.5 7 Oeste 31 Oeste 0.2 -- -- 81
2019-11-14 12:00:00 15.3 10 Sudoeste 41 Sur 2.4 -- -- 91
2019-11-14 11:00:00 17 15 Sudoeste 37 Oeste 0.2 -- -- 83
2019-11-14 10:00:00 15.4 5 Sudoeste 19 Sudoeste 0.2 -- -- 86
2019-11-14 09:00:00 12.9 5 Nordeste 14 Sudoeste 0 -- -- 90
2019-11-14 08:00:00 13.3 4 Sur 21 Este 0 -- -- 85
2019-11-14 07:00:00 14.1 7 Sudeste 31 Sudeste 0 -- -- 76
2019-11-14 06:00:00 14.3 15 Sudoeste 36 Sudoeste 0 -- -- 74
2019-11-14 05:00:00 12.3 7 Oeste 21 Sur 0 -- -- 82
2019-11-14 04:00:00 11.5 9 Sudoeste 27 Sur 0 -- -- 86
2019-11-14 03:00:00 7.1 3 Nordeste 9 Sur 0 -- -- 100
2019-11-14 02:00:00 6.8 2 Nordeste 6 Norte 0 -- -- 98
2019-11-14 01:00:00 7.6 2 Este 7 Norte 0 -- -- 99
2019-11-14 00:00:00 8.1 2 Noroeste 5 Oeste 0 -- -- 99
2019-11-13 23:00:00 8.4 2 Nordeste 6 Sudoeste 0 -- -- 99
2019-11-13 22:00:00 8.7 2 Oeste 5 Oeste 0 -- -- 98
2019-11-13 21:00:00 9.3 0 Calma 11 Oeste 0 -- -- 97
2019-11-13 20:00:00 10 3 Oeste 7 Sudoeste 0 -- -- 97
2019-11-13 19:00:00 10.3 0 Calma 8 Oeste 0 -- -- 95
2019-11-13 18:00:00 11.3 4 Oeste 10 Sudoeste 0 -- -- 94
2019-11-13 17:00:00 12.4 3 Oeste 8 Este 0 -- -- 92
2019-11-13 16:00:00 12.6 2 Noroeste 10 Este 0.2 -- -- 89
2019-11-13 15:00:00 12.6 4 Norte 24 Nordeste 1 -- -- 89
2019-11-13 14:00:00 12.5 3 Sudeste 17 Norte 1.8 -- -- 91
2019-11-13 13:00:00 12.7 9 Norte 17 Norte 0.6 -- -- 92
2019-11-13 12:00:00 12.8 3 Oeste 9 Oeste 0.8 -- -- 94
2019-11-13 11:00:00 12 3 Sudoeste 8 Sudoeste 1.8 -- -- 94
2019-11-13 10:00:00 12.1 0 Calma 5 Oeste 0.2 -- -- 91
2019-11-13 09:00:00 12.1 0 Calma 4 Sudeste 0 -- -- 86
2019-11-13 08:00:00 11.6 0 Calma 2 Sudoeste 0 -- -- 85
2019-11-13 07:00:00 11.8 2 Norte 5 Nordeste 0 -- -- 82
2019-11-13 06:00:00 11.7 0 Calma 5 Nordeste 0 -- -- 78
2019-11-13 05:00:00 11.5 3 Noroeste 5 Oeste 0 -- -- 76
2019-11-13 04:00:00 10.6 2 Norte 5 Noroeste 0 -- -- 78
2019-11-13 03:00:00 11.7 0 Calma 9 Sudoeste 0 -- -- 70
2019-11-13 02:00:00 14.9 8 Sudoeste 40 Oeste 0 -- -- 56
2019-11-13 01:00:00 15.4 17 Oeste 37 Oeste 0 -- -- 54
2019-11-13 00:00:00 15.4 19 Oeste 46 Oeste 0 -- -- 53
2019-11-12 23:00:00 15.3 17 Oeste 39 Oeste 0 -- -- 56
2019-11-12 22:00:00 15.5 17 Oeste 47 Oeste 0 -- -- 56
2019-11-12 21:00:00 15.3 16 Oeste 44 Oeste 0 -- -- 56
2019-11-12 20:00:00 15 13 Noroeste 40 Oeste 0 -- -- 56
2019-11-12 19:00:00 14.7 15 Oeste 39 Oeste 0 -- -- 62
2019-11-12 18:00:00 14.3 13 Oeste 35 Sudoeste 0 -- -- 61
2019-11-12 17:00:00 14.6 12 Oeste 37 Oeste 0 -- -- 60
2019-11-12 16:00:00 15.2 19 Oeste 46 Oeste 0 -- -- 58
2019-11-12 15:00:00 15.7 13 Oeste 42 Oeste 0 -- -- 60
2019-11-12 14:00:00 16.4 15 Oeste 35 Oeste 0.2 -- -- 54
2019-11-12 13:00:00 17.2 9 Oeste 28 Oeste 0 -- -- 55
2019-11-12 12:00:00 16.6 10 Noroeste 30 Noroeste 0 -- -- 59
2019-11-12 11:00:00 16.4 8 Noroeste 19 Oeste 0 -- -- 57
2019-11-12 10:00:00 16.9 2 Oeste 15 Nordeste 0 -- -- 55
2019-11-12 09:00:00 14.6 3 Nordeste 13 Este 0 -- -- 61
2019-11-12 08:00:00 13.5 4 Norte 23 Nordeste 0 -- -- 62
2019-11-12 07:00:00 13.5 9 Nordeste 28 Norte 0 -- -- 63
2019-11-12 06:00:00 13.4 5 Norte 18 Nordeste 0 -- -- 68
2019-11-12 05:00:00 8.4 0 Calma 5 Noroeste 0 -- -- 95
2019-11-12 04:00:00 8.4 2 Norte 4 Nordeste 0 -- -- 92
2019-11-12 03:00:00 9 0 Calma 4 Norte 0 -- -- 90
2019-11-12 02:00:00 9.2 2 Norte 5 Noroeste 0 -- -- 89
2019-11-12 01:00:00 9.3 0 Calma 7 Oeste 0 -- -- 87
2019-11-12 00:00:00 8.7 3 Noroeste 8 Oeste 0 -- -- 85
2019-11-11 23:00:00 8.3 2 Noroeste 6 Sudoeste 0 -- -- 87
2019-11-11 22:00:00 12.4 2 Noroeste 18 Noroeste 0 -- -- 65
2019-11-11 21:00:00 14.1 8 Noroeste 23 Noroeste 0 -- -- 59
2019-11-11 20:00:00 14.6 12 Norte 26 Nordeste 0 -- -- 63
2019-11-11 19:00:00 13.9 9 Norte 31 Noroeste 0.2 -- -- 63
2019-11-11 18:00:00 14.1 8 Norte 28 Nordeste 0 -- -- 66
2019-11-11 17:00:00 13 8 Norte 32 Nordeste 0.4 -- -- 74
2019-11-11 16:00:00 14.1 12 Norte 34 Nordeste 0.2 -- -- 70
2019-11-11 15:00:00 13.2 10 Norte 38 Noroeste 0 -- -- 73
2019-11-11 14:00:00 13.9 10 Norte 37 Noroeste 0 -- -- 66
2019-11-11 13:00:00 14 18 Norte 39 Nordeste 0 -- -- 63
2019-11-11 12:00:00 14.2 17 Norte 51 Noroeste 0 -- -- 60
2019-11-11 11:00:00 14.1 16 Norte 46 Norte 0 -- -- 58
2019-11-11 10:00:00 12.2 12 Noroeste 38 Noroeste 0.8 -- -- 66
2019-11-11 09:00:00 11.6 13 Norte 38 Noroeste 2.2 -- -- 77
2019-11-11 08:00:00 11.7 19 Norte 54 Norte 0.8 -- -- 68
2019-11-11 07:00:00 13.7 20 Norte 49 Norte 0 -- -- 51
2019-11-11 06:00:00 13.3 14 Noroeste 44 Noroeste 0 -- -- 64
2019-11-11 05:00:00 13.3 11 Noroeste 54 Norte 0 -- -- 65
2019-11-11 04:00:00 13.3 14 Norte 41 Norte 0 -- -- 68
2019-11-11 03:00:00 13.4 16 Norte 43 Norte 0 -- -- 65
2019-11-11 02:00:00 13.2 13 Noroeste 32 Norte 0 -- -- 62
2019-11-11 01:00:00 13.4 12 Norte 50 Nordeste 0 -- -- 62
2019-11-11 00:00:00 13.7 24 Nordeste 54 Norte 0 -- -- 47
2019-11-10 23:00:00 13.7 14 Norte 39 Norte 0 -- -- 53
2019-11-10 22:00:00 13.6 12 Norte 37 Norte 0.2 -- -- 59
2019-11-10 21:00:00 12.6 5 Noroeste 24 Noroeste 0 -- -- 57
2019-11-10 20:00:00 12.9 6 Noroeste 31 Norte 0 -- -- 59
2019-11-10 19:00:00 13.3 9 Noroeste 26 Norte 0 -- -- 60
2019-11-10 18:00:00 13.3 10 Norte 28 Norte 0 -- -- 55
2019-11-10 17:00:00 13.1 9 Oeste 28 Oeste 0 -- -- 64
2019-11-10 16:00:00 13.1 17 Oeste 39 Oeste 0 -- -- 62
2019-11-10 15:00:00 13 16 Noroeste 35 Oeste 0 -- -- 66
2019-11-10 14:00:00 12.9 11 Norte 43 Nordeste 0 -- -- 58
2019-11-10 13:00:00 12.5 14 Norte 31 Norte 0.6 -- -- 65
2019-11-10 12:00:00 10.8 8 Noroeste 58 Norte 0.6 -- -- 75
2019-11-10 11:00:00 9.7 15 Noroeste 41 Norte 5.4 -- -- 84
2019-11-10 10:00:00 8.9 20 Norte 47 Norte 9.4 -- -- 88
2019-11-10 09:00:00 9.7 22 Norte 43 Noroeste 3.4 -- -- 88
2019-11-10 08:00:00 10.1 6 Este 37 Nordeste 4.6 -- -- 95
2019-11-10 07:00:00 10.8 7 Norte 48 Oeste 19.2 -- -- 95
2019-11-10 06:00:00 11.7 14 Noroeste 48 Oeste 2.6 -- -- 89
2019-11-10 05:00:00 16 9 Noroeste 28 Oeste 0 -- -- 58
2019-11-10 04:00:00 16.4 12 Noroeste 41 Noroeste 0 -- -- 52
2019-11-10 03:00:00 16.6 14 Noroeste 28 Noroeste 0 -- -- 53
2019-11-10 02:00:00 13.8 5 Noroeste 13 Noroeste 0.2 -- -- 73
2019-11-10 01:00:00 12.3 0 Calma 4 Noroeste 0 -- -- 79
2019-11-10 00:00:00 12.5 0 Calma 4 Oeste 0 -- -- 76
2019-11-09 23:00:00 13.2 0 Calma 7 Sur 0 -- -- 69
2019-11-09 22:00:00 14.1 0 Calma 13 Sudoeste 0 -- -- 63
2019-11-09 21:00:00 13.8 4 Sudoeste 13 Oeste 0 -- -- 62
2019-11-09 20:00:00 13.8 5 Sudoeste 12 Oeste 0 -- -- 62
2019-11-09 19:00:00 14.8 4 Oeste 25 Oeste 0 -- -- 58
2019-11-09 18:00:00 15.2 8 Oeste 24 Oeste 0 -- -- 55
2019-11-09 17:00:00 15 12 Oeste 38 Noroeste 0 -- -- 59
2019-11-09 16:00:00 15.7 21 Oeste 40 Oeste 0 -- -- 58
2019-11-09 15:00:00 16.3 20 Oeste 40 Oeste 0 -- -- 55
2019-11-09 14:00:00 17.5 14 Oeste 29 Oeste 0 -- -- 51
2019-11-09 13:00:00 17 14 Oeste 28 Oeste 0 -- -- 52
2019-11-09 12:00:00 16.9 8 Oeste 24 Oeste 0 -- -- 56
2019-11-09 11:00:00 16 14 Oeste 28 Sudoeste 0 -- -- 58
2019-11-09 10:00:00 16.1 8 Noroeste 31 Oeste 0 -- -- 58
2019-11-09 09:00:00 14.7 15 Oeste 38 Oeste 0 -- -- 60
2019-11-09 08:00:00 13.9 16 Oeste 41 Oeste 0 -- -- 65
2019-11-09 07:00:00 13.7 14 Noroeste 41 Noroeste 0 -- -- 66
2019-11-09 06:00:00 13.6 15 Noroeste 36 Oeste 0 -- -- 66
2019-11-09 05:00:00 13.7 17 Noroeste 38 Oeste 0 -- -- 65
2019-11-09 04:00:00 13.6 23 Oeste 44 Oeste 0 -- -- 63
2019-11-09 03:00:00 13.5 17 Oeste 37 Oeste 0.2 -- -- 67
2019-11-09 02:00:00 13.4 19 Noroeste 46 Noroeste 0 -- -- 63
2019-11-09 01:00:00 13.4 22 Oeste 51 Noroeste 0 -- -- 66
2019-11-09 00:00:00 13.6 20 Oeste 57 Sudoeste 0 -- -- 64
2019-11-08 23:00:00 13.7 26 Noroeste 51 Oeste 0 -- -- 61
2019-11-08 22:00:00 14 19 Noroeste 59 Oeste 0 -- -- 59
2019-11-08 21:00:00 14.5 28 Oeste 59 Oeste 0 -- -- 56
2019-11-08 20:00:00 15.8 21 Oeste 58 Oeste 0 -- -- 42
2019-11-08 19:00:00 15.3 15 Oeste 41 Oeste 0 -- -- 48
2019-11-08 18:00:00 14.7 12 Oeste 42 Oeste 0 -- -- 49
2019-11-08 17:00:00 14.9 19 Oeste 48 Oeste 0.2 -- -- 50
2019-11-08 16:00:00 15.1 22 Oeste 44 Oeste 0 -- -- 48
2019-11-08 15:00:00 15.3 18 Oeste 43 Oeste 0 -- -- 48
2019-11-08 14:00:00 15.6 17 Oeste 35 Oeste 0 -- -- 48
2019-11-08 13:00:00 14.9 19 Oeste 41 Oeste 0.2 -- -- 46
2019-11-08 12:00:00 15.2 15 Oeste 40 Oeste 0 -- -- 46
2019-11-08 11:00:00 14.6 13 Oeste 39 Norte 0 -- -- 49
2019-11-08 10:00:00 13.5 17 Oeste 48 Oeste 0.2 -- -- 52
2019-11-08 09:00:00 13.3 11 Noroeste 33 Norte 0 -- -- 57
2019-11-08 08:00:00 13 8 Noroeste 26 Norte 0 -- -- 60
2019-11-08 07:00:00 13.3 13 Oeste 34 Oeste 0 -- -- 60
2019-11-08 06:00:00 11.8 9 Oeste 29 Sudoeste 0.2 -- -- 69
2019-11-08 05:00:00 12.2 18 Oeste 40 Oeste 0 -- -- 63
2019-11-08 04:00:00 13.2 14 Oeste 34 Oeste 0 -- -- 60
2019-11-08 03:00:00 11.1 9 Oeste 18 Sudoeste 0.2 -- -- 74
2019-11-08 02:00:00 11.2 12 Oeste 51 Oeste 0.6 -- -- 76
2019-11-08 01:00:00 13.7 22 Noroeste 46 Noroeste 0.2 -- -- 56
2019-11-08 00:00:00 13.1 11 Noroeste 33 Oeste 0 -- -- 64
2019-11-07 23:00:00 12.5 10 Oeste 30 Oeste 0.6 -- -- 76
2019-11-07 22:00:00 15 10 Noroeste 26 Noroeste 0.2 -- -- 63
2019-11-07 21:00:00 14 6 Noroeste 26 Norte 0 -- -- 91
2019-11-07 20:00:00 13 5 Oeste 34 Noroeste 14.8 -- -- 98
2019-11-07 19:00:00 14.2 6 Sudoeste 15 Sur 4.6 -- -- 95
2019-11-07 18:00:00 15.2 2 Oeste 10 Oeste 0.2 -- -- 91
2019-11-07 17:00:00 16.3 6 Oeste 16 Sudoeste 0.6 -- -- 82
2019-11-07 16:00:00 18.8 7 Oeste 18 Oeste 0 -- -- 60
2019-11-07 15:00:00 20.3 10 Sudoeste 19 Oeste 0 -- -- 51
2019-11-07 14:00:00 19.5 8 Oeste 23 Oeste 0 -- -- 53
2019-11-07 13:00:00 20 15 Oeste 31 Noroeste 0 -- -- 54
2019-11-07 12:00:00 19.9 3 Sur 6 Nordeste 0 -- -- 58
2019-11-07 11:00:00 18.2 3 Sur 14 Sur 0 -- -- 64
2019-11-07 10:00:00 19.2 2 Sur 6 Sur 0 -- -- 59
2019-11-07 09:00:00 13.2 2 Nordeste 4 Este 0 -- -- 83
2019-11-07 08:00:00 9.3 0 Calma 9 Noroeste 0 -- -- 94
2019-11-07 07:00:00 8.3 0 Calma 4 Norte 0 -- -- 95
2019-11-07 06:00:00 8.7 0 Calma 3 Norte 0 -- -- 94
2019-11-07 05:00:00 8.7 0 Calma 3 Noroeste 0 -- -- 92
2019-11-07 04:00:00 9.1 0 Calma 5 Sudeste 0 -- -- 91
2019-11-07 03:00:00 9.4 0 Calma 4 Sudeste 0 -- -- 88
2019-11-07 02:00:00 9.4 0 Calma 4 Norte 0 -- -- 90
2019-11-07 01:00:00 9.6 0 Calma 2 Norte 0 -- -- 90
2019-11-07 00:00:00 10.1 0 Calma 5 Nordeste 0 -- -- 88
2019-11-06 23:00:00 10.9 3 Norte 8 Nordeste 0 -- -- 86
2019-11-06 22:00:00 11.8 3 Nordeste 9 Norte 0 -- -- 82
2019-11-06 21:00:00 12 2 Noroeste 6 Sur 0 -- -- 81
2019-11-06 20:00:00 12.6 3 Oeste 9 Sudoeste 0 -- -- 78
2019-11-06 19:00:00 13 3 Oeste 8 Sudoeste 0 -- -- 75
2019-11-06 18:00:00 14.5 3 Sudoeste 19 Noroeste 0 -- -- 69
2019-11-06 17:00:00 16.5 9 Oeste 21 Oeste 0 -- -- 59
2019-11-06 16:00:00 17.2 13 Oeste 29 Oeste 0 -- -- 56
2019-11-06 15:00:00 19.3 7 Noroeste 28 Noroeste 0 -- -- 50
2019-11-06 14:00:00 18.5 9 Oeste 31 Oeste 0 -- -- 54
2019-11-06 13:00:00 17.2 14 Noroeste 39 Noroeste 0 -- -- 58
2019-11-06 12:00:00 18 12 Noroeste 40 Sudoeste 0 -- -- 57
2019-11-06 11:00:00 17.6 9 Noroeste 28 Noroeste 0 -- -- 59
2019-11-06 10:00:00 17.2 13 Oeste 30 Oeste 0 -- -- 57
2019-11-06 09:00:00 16.1 10 Oeste 40 Oeste 0 -- -- 59
2019-11-06 08:00:00 15.8 14 Oeste 35 Oeste 0 -- -- 60
2019-11-06 07:00:00 15.7 19 Oeste 44 Oeste 0 -- -- 57
2019-11-06 06:00:00 15.8 17 Oeste 51 Oeste 0 -- -- 59
2019-11-06 05:00:00 16 23 Oeste 53 Oeste 0 -- -- 55
2019-11-06 04:00:00 16 21 Oeste 51 Noroeste 0 -- -- 55
2019-11-06 03:00:00 16.1 21 Noroeste 50 Noroeste 0 -- -- 53
2019-11-06 02:00:00 16.6 24 Oeste 44 Oeste 0 -- -- 50
2019-11-06 01:00:00 17 17 Oeste 37 Oeste 0 -- -- 51
2019-11-06 00:00:00 16.7 10 Oeste 36 Noroeste 0 -- -- 58